Flag for Canada Weather past 2 weeks in Labrador City, Newfoundland and Labrador, Canada

41 °F


Feels Like: 36 °F
Forecast: 31 / 56 °F
Wind: 7 mph from Northwest

Location: Wabush Lake

Current Time: Oct 4, 2015 at 12:24:28 AM

Latest Report: Oct 3, 2015 at 11:00 PM

Visibility: 9 mi

Pressure: 30.68 "Hg (28.65 "Hg at 558m altitude)

Humidity: 81%

Dew point: 36 °F

Location of Labrador CityLocation

Historic Weather in Labrador City — Graph


Labrador City temperature yesterday

Maximum temperature yesterday: 46 °F (at 5:00 PM)
Minimum temperature yesterday: 23 °F (at 7:00 AM)
Average temperature yesterday: 36 °F

Past Weeks' High & Low Weather Summary

High68 °F (Sep 22, 4:00 PM)100% (Sep 19, 10:00 PM)30.77 "Hg (Sep 19, 10:00 PM)
Low23 °F (Oct 3, 7:00 AM)38% (Sep 22, 4:00 PM)29.34 "Hg (Sep 20, 7:00 AM)
Average45 °F72%30.14 "Hg
* Reported Sep 18 11:00 PM — Oct 3 11:00 PM, Labrador City, Weather by CustomWeather, © 2015

Note: Actual official high and low records may vary slightly from our data, if they occured in-between our weather recording intervals... More about our weather records


Labrador City weather history for previous 24 hours

Time TempWeatherWind HumidityBarometerVisibility
11:00 PM
Sat, Oct 3
41 °FClear.7 mph81%30.68 "Hg9 mi
10:00 PM43 °FPassing clouds.8 mph76%30.69 "Hg15 mi
9:00 PM45 °FPassing clouds.8 mph71%30.69 "Hg15 mi
8:00 PM45 °FPartly sunny.8 mph71%30.70 "Hg15 mi
7:00 PM46 °FPartly sunny.7 mph66%30.71 "Hg15 mi
6:00 PM46 °FPartly sunny.7 mph66%30.71 "Hg15 mi
5:00 PM46 °FOvercast.6 mph62%30.70 "Hg15 mi
4:00 PM45 °FOvercast.8 mph61%30.72 "Hg15 mi
3:00 PM45 °FOvercast.6 mph61%30.71 "Hg15 mi
2:00 PM43 °FOvercast.7 mph71%30.73 "Hg15 mi
1:00 PM41 °FOvercast.5 mph76%30.75 "Hg15 mi
12:00 PM39 °FOvercast.5 mph75%30.76 "Hg15 mi
11:00 AM37 °FOvercast.9 mph75%30.77 "Hg15 mi
10:00 AM36 °FPartly sunny.5 mph81%30.77 "Hg15 mi
9:00 AM30 °FPassing clouds.9 mph86%30.77 "Hg15 mi
8:00 AM28 °FPassing clouds.7 mph93%30.77 "Hg15 mi
7:00 AM23 °FClear.3 mph93%30.77 "Hg15 mi
6:00 AM27 °FClear.3 mph86%30.76 "Hg15 mi
5:00 AM25 °FClear.5 mph93%30.76 "Hg9 mi
4:00 AM25 °FClear.2 mph93%30.76 "Hg9 mi
3:00 AM27 °FClear.2 mph93%30.76 "Hg9 mi
2:00 AM25 °FClear.3 mph100%30.76 "Hg9 mi
1:00 AM25 °FClear.3 mph100%30.76 "Hg9 mi
12:00 AM27 °FClear.No wind93%30.77 "Hg9 mi
Weather by CustomWeather, © 2015

See weather overviewHow to use our weather pages